Weather History for Amritsar, India

Change the Weather History Date:

Tuesday, November 19, 2013

  Actual Average Record
Temperature  
Mean Temperature 62 °F -  
Max Temperature 79 °F 76 °F 84 °F (2001)
Min Temperature 46 °F 49 °F 44 °F (2003)
Degree Days  
Heating Degree Days 2    
Growing Degree Days 12 (Base 50)    
Moisture  
Dew Point 52 °F    
Average Humidity 79    
Maximum Humidity 100    
Minimum Humidity 26    
Precipitation  
Precipitation 0.00 in - - ()
Sea Level Pressure  
Sea Level Pressure 29.99 in    
Wind  
Wind Speed 0 mph ()    
Max Wind Speed 6 mph    
Max Gust Speed -    
Visibility 1.3 miles    
Events Fog    
Averages and records for this station are not official NWS values.
T = Trace of Precipitation, MM = Missing Value Source: Averaged Metar Reports

Daily Weather History Graph

Daily Weather History Graph

Search for Another Location

Airport:

Trip Planner

Search our weather history database for the weather conditions in past years. The results will help you decide how hot, cold, wet, or windy it might be!

Date:

Astronomy

Nov. 19, 2013 Rise Set
Actual Time 7:02 AM IST 5:29 PM IST
Civil Twilight 6:36 AM IST 5:55 PM IST
Nautical Twilight 6:06 AM IST 6:25 PM IST
Astronomical Twilight 5:37 AM IST 6:54 PM IST
Moon 6:59 PM IST (11/19) 8:17 AM IST (11/19)
Length of Visible Light 11h 19m
Length of Day
10h 27m
Full, 97% of the Moon is Illuminated
Nov 19
Full
Nov 26
Last Quarter
Dec 3
New
Dec 9
First Quarter
Dec 17
Full

Hourly Weather History & Observations

Time (IST) Temp. Dew Point Humidity Pressure Visibility Wind Dir Wind Speed Gust Speed Precip Events Conditions
12:00 AM 55.4 °F 53.6 °F 94% 30.04 in 1.2 mi Calm Calm - N/A   Scattered Clouds
12:30 AM 53.6 °F 53.6 °F 100% 30.04 in 1.2 mi Calm Calm - N/A   Scattered Clouds
1:00 AM 53.6 °F 53.6 °F 100% 30.01 in 1.2 mi Calm Calm - N/A   Scattered Clouds
1:30 AM 53.6 °F 53.6 °F 100% 30.01 in 1.2 mi Calm Calm - N/A   Scattered Clouds
2:00 AM 53.6 °F 53.6 °F 100% 30.01 in 1.2 mi Calm Calm - N/A   Scattered Clouds
2:30 AM 51.8 °F 51.8 °F 100% 30.01 in 1.2 mi Calm Calm - N/A   Scattered Clouds
3:00 AM 50.0 °F 50.0 °F 100% 29.98 in 1.2 mi Calm Calm - N/A   Scattered Clouds
3:30 AM 50.0 °F 50.0 °F 100% 29.98 in 1.2 mi Calm Calm - N/A   Scattered Clouds
4:00 AM 50.0 °F 50.0 °F 100% 29.98 in 1.2 mi Calm Calm - N/A   Scattered Clouds
4:30 AM 50.0 °F 50.0 °F 100% 29.98 in 1.2 mi Calm Calm - N/A   Scattered Clouds
5:00 AM 48.2 °F 48.2 °F 100% 29.98 in 1.2 mi Calm Calm - N/A   Scattered Clouds
5:30 AM 48 °F 48 °F 100% 29.99 in 1 mi Calm Calm - -   Mist
5:30 AM 48.2 °F 48.2 °F 100% 29.98 in 1.2 mi Calm Calm - N/A   Scattered Clouds
6:00 AM 48.2 °F 48.2 °F 100% 29.98 in 1.2 mi Calm Calm - N/A   Scattered Clouds
6:30 AM 46.4 °F 46.4 °F 100% 29.98 in 0.6 mi Calm Calm - N/A   Scattered Clouds
7:00 AM 46.4 °F 46.4 °F 100% 29.98 in 0.6 mi Calm Calm - N/A   Scattered Clouds
7:30 AM 46.4 °F 46.4 °F 100% 30.01 in 0.5 mi Calm Calm - N/A Fog Shallow Fog
8:00 AM 50.0 °F 50.0 °F 100% 30.01 in 0.5 mi Calm Calm - N/A Fog Shallow Fog
8:30 AM 53 °F 53 °F 99% 30.04 in 0 mi Calm Calm - - Fog Partial Fog
8:30 AM 53.6 °F 53.6 °F 100% 30.04 in 0.4 mi Calm Calm - N/A Fog Shallow Fog
9:00 AM 55.4 °F 55.4 °F 100% 30.04 in 0.4 mi Calm Calm - N/A Fog Shallow Fog
10:00 AM 66.2 °F 57.2 °F 73% 30.04 in 0.6 mi Calm Calm - N/A   Scattered Clouds
10:30 AM 75.2 °F 57.2 °F 53% 30.04 in 0.6 mi Calm Calm - N/A   Scattered Clouds
11:00 AM 69.8 °F 55.4 °F 60% 30.04 in 0.9 mi Calm Calm - N/A   Haze
11:30 AM 74 °F 52 °F 35% 30.01 in 1 mi Calm Calm - -   Haze
11:30 AM 75.2 °F 51.8 °F 44% 30.04 in 1.1 mi Calm Calm - N/A   Haze
12:00 PM 75.2 °F 50.0 °F 41% 30.04 in 1.1 mi Variable 1.2 mph - N/A   Haze
12:30 PM 73.4 °F 50.0 °F 44% 30.01 in 1.1 mi Variable 2.3 mph - N/A   Haze
1:00 PM 77.0 °F 51.8 °F 41% 30.01 in 1.4 mi Variable 1.2 mph - N/A   Haze
1:30 PM 78.8 °F 50.0 °F 36% 29.98 in 1.6 mi West 4.6 mph - N/A   Haze
2:30 PM 79 °F 51 °F 26% 29.94 in 2 mi West 4.6 mph - -   Haze
3:00 PM 78.8 °F 48.2 °F 34% 29.95 in 2.8 mi West 4.6 mph - N/A   Haze
4:00 PM 78.8 °F 48.2 °F 34% 29.95 in 2.8 mi West 5.8 mph - N/A   Haze
4:30 PM 77.0 °F 50.0 °F 39% 29.95 in 2.8 mi Variable 2.3 mph - N/A   Haze
5:00 PM 75.2 °F 51.8 °F 44% 29.95 in 2.5 mi Calm Calm - N/A   Haze
5:30 PM 70 °F 53 °F 44% 29.93 in 1 mi Calm Calm - -   Haze
5:30 PM 69.8 °F 51.8 °F 53% 29.95 in - Calm Calm - N/A   Haze
6:30 PM 68.0 °F 53.6 °F 60% 29.95 in - Calm Calm - N/A   Haze
7:00 PM 64.4 °F 53.6 °F 68% 29.98 in - Calm Calm - N/A   Haze
8:00 PM 60.8 °F 57.2 °F 88% 29.98 in 1.6 mi Calm Calm - N/A   Mist
8:30 PM 59.0 °F 57.2 °F 94% 29.98 in 1.6 mi Calm Calm - N/A   Mist
9:00 PM 59.0 °F 57.2 °F 94% 29.98 in 1.6 mi Calm Calm - N/A   Mist
9:30 PM 59.0 °F 55.4 °F 88% 29.98 in 1.6 mi Calm Calm - N/A   Mist
10:00 PM 57.2 °F 55.4 °F 94% 29.98 in 1.6 mi Calm Calm - N/A   Mist
10:30 PM 55.4 °F 55.4 °F 100% 30.01 in 1.6 mi Calm Calm - N/A   Mist
11:00 PM 55.4 °F 55.4 °F 100% 30.01 in 1.6 mi Calm Calm - N/A   Mist
11:30 PM 55 °F 55 °F 98% 30.00 in 1 mi Calm Calm - -   Mist
11:30 PM 55.4 °F 55.4 °F 100% 29.98 in 1.6 mi Calm Calm - N/A   Mist